Location: D�pe
(52.6057°N, 8.1808°E)
Time: 01:46:03
(UTC+00:00)

H-2A R/B - Pass Details

Date: 29 October 2020
Orbit: 733 x 837 km, 98.2° (Epoch: 23 November)

Event Time Altitude Azimuth Distance (km) Brightness Sun altitude
Rises 19:38:11 0° 205° (SSW) 3,363 5.4 -32.9°
Reaches altitude 10° 19:41:02 10° 220° (SW) 2,443 4.7 -33.3°
Maximum altitude 19:45:14 22° 271° (W) 1,741 4.3 -33.9°
Drops below altitude 10° 19:49:27 10° 322° (NW) 2,461 5.3 -34.4°
Sets 19:52:22 0° 337° (NNW) 3,396 6.0 -34.9°
